Flag for U.S.A. Weather past 2 weeks in Thousand Oaks, California, U.S.A.

Now
66 °F

More clouds than sun.


Feels Like: 66 °F
Forecast: 51 / 65 °F
Wind: 8 mph from Southwest

Location: Camarillo Airport

Current Time: Apr 21, 2015 at 2:18:44 PM

Latest Report: Apr 21, 2015 at 1:55 PM


Visibility: 10 mi

Pressure: 29.95 "Hg

Humidity: 50%

Dew point: 47 °F

Location of Thousand OaksLocation

Historic Weather in Thousand Oaks — Graph

°F

Thousand Oaks temperature yesterday

Maximum temperature yesterday: 66 °F (at 11:55 AM)
Minimum temperature yesterday: 53 °F (at 12:55 AM)
Average temperature yesterday: 59 °F

Past Weeks' High & Low Weather Summary

 TemperatureHumidityPressure
High82 °F (Apr 16, 12:55 PM)93% (Apr 19, 6:55 AM)30.14 "Hg (Apr 19, 6:55 AM)
Low42 °F (Apr 8, 4:55 AM)6% (Apr 16, 11:55 AM)29.86 "Hg (Apr 20, 5:55 PM)
Average60 °F59%30.00 "Hg
* Reported Apr 6 12:55 PM — Apr 21 12:55 PM, Thousand Oaks, Weather by CustomWeather, © 2015

Note: Actual official high and low records may vary slightly from our data, if they occured in-between our weather recording intervals... More about our weather records

Advertising

Thousand Oaks weather history for previous 24 hours

 ConditionsComfort  
Time TempWeatherWind HumidityBarometerVisibility
12:55 PM
Tue, Apr 21
66 °FOvercast.9 mph50%29.96 "Hg10 mi
11:55 AM63 °FOvercast.9 mph56%29.97 "Hg10 mi
10:55 AM64 °FOvercast.No wind54%29.97 "Hg10 mi
9:55 AM62 °FOvercast.5 mph56%29.97 "Hg10 mi
8:55 AM61 °FPartly sunny.No wind56%29.96 "Hg10 mi
7:55 AM61 °FOvercast.No wind56%29.95 "Hg10 mi
6:55 AM59 °FOvercast.No wind62%29.94 "Hg10 mi
5:55 AM58 °FOvercast.3 mph72%29.93 "Hg10 mi
4:55 AM58 °FOvercast.No wind75%29.91 "Hg10 mi
3:55 AM57 °FOvercast.3 mph78%29.92 "Hg10 mi
2:55 AM57 °FOvercast.No wind78%29.92 "Hg10 mi
2:02 AM57 °FOvercast.No wind78%29.90 "Hg10 mi
1:55 AM56 °FMostly cloudy.No wind81%29.92 "Hg10 mi
12:55 AM56 °FOvercast.No wind77%29.93 "Hg10 mi
11:55 PM
Mon, Apr 20
56 °FPassing clouds.3 mph77%29.93 "Hg10 mi
10:55 PM56 °FClear.No wind81%29.92 "Hg10 mi
9:55 PM57 °FPassing clouds.No wind78%29.92 "Hg10 mi
8:55 PM57 °FPassing clouds.5 mph78%29.90 "Hg10 mi
7:55 PM58 °FSunny.6 mph75%29.88 "Hg10 mi
6:55 PM60 °FSunny.8 mph69%29.87 "Hg10 mi
5:55 PM62 °FSunny.12 mph65%29.86 "Hg10 mi
4:55 PM64 °FSunny.10 mph61%29.87 "Hg10 mi
3:55 PM65 °FSunny.12 mph56%29.88 "Hg10 mi
2:55 PM65 °FSunny.12 mph59%29.89 "Hg10 mi
Weather by CustomWeather, © 2015

See weather overviewHow to use our weather pages